Regional Weather Roundup
Issued by NWS Cleveland, OH

Home | Current Version | Previous Version | Text Only | Print | Product List | Glossary Off
Versions: 1 2 3 4 5 6 7 8 9 10 11 12 13 14 15 16 17 18 19 20 21 22 23 24 25 26 27 28 29 30 31 32 33 34 35 36 37 38 39 40 41 42 43 44 45 46 47 48 49 50

000
ASUS41 KCLE 232302
RWRCLE
OHIO REGIONAL WEATHER ROUNDUP
NATIONAL WEATHER SERVICE CLEVELAND, OH
700 PM EDT TUE MAY 23 2017

NOTE: "FAIR" INDICATES FEW OR NO CLOUDS BELOW 12,000 FEET WITH NO
SIGNIFICANT WEATHER AND/OR OBSTRUCTIONS TO VISIBILITY.

OHZ001>008-015>018-024>027-034-035-043-044-240000-
   NORTHWEST OHIO

CITY           SKY/WX    TMP DP  RH WIND       PRES   REMARKS
DEFIANCE       PTSUNNY   71  47  42 N12       29.69F
FINDLAY        PTSUNNY   74  45  35 E7        29.68F
TOLEDO EXPRESS CLOUDY    69  49  48 E12       29.70F
TOLEDO EXEC    CLOUDY    68  49  50 E9        29.71F
LIMA           MOSUNNY   70  50  49 NE6       29.69F
$$

OHZ009>014-019>023-028>033-038-089-240000-
   NORTHEAST OHIO

CITY           SKY/WX    TMP DP  RH WIND       PRES   REMARKS
CLE-HOPKINS    CLOUDY    67  50  54 N8        29.73F
CLE-LAKEFRONT  CLOUDY    62  53  72 NE15      29.70F
CUY CO. ARPT   MOSUNNY   73  45  35 SE12      29.72F
LORAIN-ELYRIA  MOSUNNY   65  46  50 NE12      29.72F
ASHTABULA      CLOUDY    69  49  48 NE7       29.75S
AKRON-CANTON   PTSUNNY   71  48  43 SE13      29.72F
WOOSTER        MOSUNNY   71  49  45 SE8       29.71F
MANSFIELD      CLOUDY    70  48  45 E8        29.72S
YOUNGSTOWN     CLOUDY    70  45  40 SE8       29.74F
$$

OHZ042-051>053-060>062-070>072-077>081-240000-
  SOUTHWEST OHIO

CITY           SKY/WX    TMP DP  RH WIND       PRES   REMARKS
CINC-COVINGTON CLOUDY    72  53  51 CALM      29.66F
CINC-LUNKEN    CLOUDY    72  54  53 SE6       29.66F
HAMILTON       PTSUNNY   73  50  44 E6        29.67F
DAYTON         CLOUDY    71  48  43 E8        29.68F
WRIGHT-PAT AFB CLOUDY    73  43  34 E5        29.67F
DAYTON GENERAL CLOUDY    72  48  42 CALM      29.67F
WILMINGTON     CLOUDY    69  50  50 SE7       29.68F
$$

OHZ036-037-039>041-045>050-054>059-063>069-073>076-082>088-240000-
  CENTRAL AND SOUTHEAST OHIO

CITY           SKY/WX    TMP DP  RH WIND       PRES   REMARKS
COLUMBUS       CLOUDY    73  47  39 SE5       29.68F
OSU AIRPORT    CLOUDY    72  46  39 SE9       29.69S
BOLTON FIELD   SUNNY     70  48  46 SE3       29.69F
RICKENBACK AFB CLOUDY    71  47  42 SE6       29.69S
NEWARK         CLOUDY    72  48  42 SE7       29.69F
MARION         CLOUDY    72  43  35 S12       29.70S
LANCASTER      CLOUDY    71  51  49 S6        29.70F
ZANESVILLE     CLOUDY    71  56  58 SE7       29.70F
NEW PHILLY     NOT AVBL
$$




USA.gov is the U.S. government's official web portal to all federal, state and local government web resources and services.